FW8547 Weather Reports


Display with metric or nautical units.
time (UTC)temp
F
wind
direction
speed
MPH
gust
MPH
rain 1hr
in
rain 24hr
in
rain mn
in
humidity
%
barometer
mb
20260503185102 73 16 4.0 5.0 0.00 0.00 0.00 58 1016.3
20260503184558 72 290 3.0 3.0 0.00 0.00 0.00 58 1016.5
20260503184055 71 332 5.0 6.0 0.00 0.00 0.00 58 1016.6
20260503183551 71 339 4.0 5.0 0.00 0.00 0.00 60 1016.5
20260503183049 70 252 5.0 6.0 0.00 0.00 0.00 61 1016.5
20260503182547 70 312 3.0 3.0 0.00 0.00 0.00 61 1016.6
20260503182045 71 321 4.0 5.0 0.00 0.00 0.00 61 1016.7
20260503181541 70 179 1.0 2.0 0.00 0.00 0.00 62 1016.6
20260503181038 71 42 0.0 1.0 0.00 0.00 0.00 60 1016.5
20260503180535 70 70 0.0 1.0 0.00 0.00 0.00 62 1016.9
20260503180032 70 14 5.0 6.0 0.00 0.00 0.00 63 1016.6
20260503175530 69 64 2.0 3.0 0.00 0.00 0.00 65 1016.9
20260503175027 69 356 5.0 6.0 0.00 0.00 0.00 63 1017.1
20260503174524 68 285 3.0 3.0 0.00 0.00 0.00 63 1017.0
20260503174020 68 338 2.0 2.0 0.00 0.00 0.00 64 1016.8
20260503173515 67 350 3.0 6.0 0.00 0.00 0.00 67 1016.8
20260503173012 67 342 4.0 5.0 0.00 0.00 0.00 68 1017.1
20260503172510 67 302 3.0 5.0 0.00 0.00 0.00 66 1017.2
20260503172006 66 274 4.0 5.0 0.00 0.00 0.00 68 1017.2
20260503171503 66 350 3.0 5.0 0.00 0.00 0.00 69 1017.2
20260503171000 66 345 5.0 5.0 0.00 0.00 0.00 70 1017.0
20260503170456 65 344 2.0 3.0 0.00 0.00 0.00 69 1017.7
20260503150849 56 344 2.0 2.0 0.00 0.00 0.00 90 1017.4
20260503150345 56 4 2.0 2.0 0.00 0.00 0.00 92 1017.6
20260503140309 51 62 0.0 0.0 0.00 0.00 0.00 99 1017.1
20260503131239 50 51 0.0 0.0 0.00 0.00 0.00 99 1017.2
20260503130736 50 51 0.0 0.0 0.00 0.00 0.00 99 1017.2
20260503130233 50 45 0.0 0.0 0.00 0.00 0.00 99 1017.4
20260503120159 50 65 0.0 0.0 0.00 0.00 0.00 99 1017.2
20260503110627 51 63 0.0 0.0 0.00 0.00 0.00 99 1017.5
20260503110124 51 68 0.0 0.0 0.00 0.00 0.00 99 1017.7
20260503081440 55 11 0.0 0.0 0.00 0.00 0.00 92 1017.5
20260503080937 55 16 0.0 0.0 0.00 0.00 0.00 92 1017.7
20260503080433 55 16 0.0 0.0 0.00 0.00 0.00 92 1017.6
20260503072910 55 71 1.0 1.0 0.00 0.00 0.00 87 1017.6
20260503072407 55 66 1.0 1.0 0.00 0.00 0.00 87 1017.5
20260503071904 55 66 1.0 1.0 0.00 0.00 0.00 86 1017.5
20260503071401 55 66 1.0 1.0 0.00 0.00 0.00 86 1017.4
20260503070856 55 66 1.0 1.0 0.00 0.00 0.00 86 1017.6
20260503070355 55 66 1.0 1.0 0.00 0.00 0.00 86 1017.7
20260503060320 57 48 0.0 1.0 0.00 0.00 0.00 80 1017.4
20260503054808 57 65 1.0 1.0 0.00 0.00 0.00 85 1017.4
20260503054304 57 73 1.0 1.0 0.00 0.00 0.00 85 1017.6
20260503053802 57 64 0.0 0.0 0.00 0.00 0.00 84 1017.5
20260503053300 57 61 0.0 0.0 0.00 0.00 0.00 84 1017.5
20260503052756 58 65 0.0 0.0 0.00 0.00 0.00 84 1017.5
20260503052253 58 54 1.0 1.0 0.00 0.00 0.00 83 1017.5
20260503051748 58 61 1.0 1.0 0.00 0.00 0.00 80 1017.6
20260503051246 58 58 0.0 1.0 0.00 0.00 0.00 79 1017.5
20260503050742 59 58 0.0 0.0 0.00 0.00 0.00 80 1017.5
20260503050239 60 59 0.0 1.0 0.00 0.00 0.00 78 1017.5
20260503045736 61 51 1.0 1.0 0.00 0.00 0.00 74 1017.2
20260503045234 62 340 0.0 0.0 0.00 0.00 0.00 70 1017.2
20260503044730 60 20 0.0 0.0 0.00 0.00 0.00 73 1017.2
20260503044228 60 76 1.0 1.0 0.00 0.00 0.00 75 1017.4
20260503043724 60 76 0.0 0.0 0.00 0.00 0.00 76 1017.2
20260503043222 61 76 1.0 1.0 0.00 0.00 0.00 76 1017.1
20260503042717 62 29 0.0 1.0 0.00 0.00 0.00 70 1017.0
20260503042214 60 347 1.0 1.0 0.00 0.00 0.00 72 1016.9
20260503041710 60 34 0.0 0.0 0.00 0.00 0.00 78 1016.9
20260503041208 60 50 0.0 1.0 0.00 0.00 0.00 80 1016.8
20260503040705 61 76 0.0 0.0 0.00 0.00 0.00 79 1016.9
20260503040203 62 44 0.0 0.0 0.00 0.00 0.00 75 1016.7
20260503035659 62 61 1.0 1.0 0.00 0.00 0.00 76 1016.7
20260503035157 63 101 1.0 1.0 0.00 0.00 0.00 75 1016.6
20260503034654 65 126 2.0 2.0 0.00 0.00 0.00 64 1016.4
20260503034151 65 334 2.0 2.0 0.00 0.00 0.00 62 1016.5
20260503033649 65 338 1.0 1.0 0.00 0.00 0.00 65 1016.5
20260503033146 65 342 1.0 1.0 0.00 0.00 0.00 66 1016.4
20260503032644 65 353 0.0 1.0 0.00 0.00 0.00 68 1016.4
20260503032143 65 5 1.0 1.0 0.00 0.00 0.00 69 1016.1
20260503031639 66 22 0.0 0.0 0.00 0.00 0.00 66 1016.2
20260503031137 67 52 0.0 0.0 0.00 0.00 0.00 63 1016.0
20260503030633 68 21 0.0 0.0 0.00 0.00 0.00 62 1016.1
20260503030130 68 326 2.0 2.0 0.00 0.00 0.00 63 1016.2
20260503025626 68 349 1.0 1.0 0.00 0.00 0.00 62 1016.1
20260503025125 69 332 5.0 6.0 0.00 0.00 0.00 61 1016.0
20260503024621 69 7 2.0 2.0 0.00 0.00 0.00 61 1016.0
20260503024118 69 344 0.0 0.0 0.00 0.00 0.00 61 1016.0
20260503023615 69 339 5.0 6.0 0.00 0.00 0.00 61 1016.1
20260503023112 69 61 0.0 0.0 0.00 0.00 0.00 62 1015.9
20260503022607 69 49 1.0 2.0 0.00 0.00 0.00 63 1016.1
20260503022102 69 12 4.0 5.0 0.00 0.00 0.00 62 1016.1
20260503021600 70 2 2.0 2.0 0.00 0.00 0.00 61 1015.8
20260503021056 70 99 0.0 1.0 0.00 0.00 0.00 63 1015.7
20260503020553 70 334 2.0 3.0 0.00 0.00 0.00 61 1016.0
20260503020050 70 327 6.0 9.0 0.00 0.00 0.00 61 1015.9
20260503015547 71 334 2.0 2.0 0.00 0.00 0.00 61 1015.9
20260503015045 71 342 5.0 7.0 0.00 0.00 0.00 61 1016.1
20260503014540 71 278 2.0 3.0 0.00 0.00 0.00 61 1015.9
20260503014038 71 354 5.0 6.0 0.00 0.00 0.00 61 1015.7
20260503013535 71 34 7.0 9.0 0.00 0.00 0.00 61 1015.9
20260503013033 71 23 5.0 7.0 0.00 0.00 0.00 62 1015.8
20260503012530 71 297 1.0 2.0 0.00 0.00 0.00 62 1015.9
20260503012026 72 259 4.0 5.0 0.00 0.00 0.00 62 1016.0
20260503011523 72 19 2.0 2.0 0.00 0.00 0.00 63 1015.9
20260503011021 72 21 5.0 6.0 0.00 0.00 0.00 62 1015.8
20260503010516 72 57 2.0 2.0 0.00 0.00 0.00 62 1015.9
20260503010015 73 330 8.0 9.0 0.00 0.00 0.00 61 1015.9
20260503005511 73 31 0.0 1.0 0.00 0.00 0.00 62 1015.8
20260503005009 72 324 5.0 6.0 0.00 0.00 0.00 63 1016.2
20260503004504 72 356 8.0 10.0 0.00 0.00 0.00 63 1015.9
20260503004003 72 302 5.0 7.0 0.00 0.00 0.00 63 1016.0
20260503003459 73 326 5.0 6.0 0.00 0.00 0.00 62 1016.2
20260503002956 73 333 3.0 3.0 0.00 0.00 0.00 62 1016.2
20260503002453 73 288 5.0 6.0 0.00 0.00 0.00 63 1015.9
20260503001949 72 26 3.0 5.0 0.00 0.00 0.00 64 1016.1
20260503001446 72 37 1.0 2.0 0.00 0.00 0.00 65 1016.1
20260503000944 72 303 5.0 7.0 0.00 0.00 0.00 64 1015.9
20260503000441 73 317 7.0 9.0 0.00 0.00 0.00 63 1016.0
20260502235938 72 325 5.0 8.0 0.00 0.00 0.00 64 1016.2
20260502235435 72 272 10.0 13.0 0.00 0.00 0.00 63 1016.2
20260502234932 72 282 5.0 6.0 0.00 0.00 0.00 63 1016.4
20260502234429 73 61 1.0 2.0 0.00 0.00 0.00 63 1016.4
20260502233926 73 8 4.0 5.0 0.00 0.00 0.00 62 1016.4
20260502233421 73 292 2.0 3.0 0.00 0.00 0.00 63 1016.6
20260502232918 73 14 5.0 5.0 0.00 0.00 0.00 61 1016.6
20260502232414 72 268 5.0 7.0 0.00 0.00 0.00 62 1016.4
20260502231912 73 304 4.0 5.0 0.00 0.00 0.00 62 1016.7
20260502231409 73 336 2.0 2.0 0.00 0.00 0.00 62 1016.9
20260502230907 72 268 3.0 3.0 0.00 0.00 0.00 63 1016.9
20260502230405 72 40 1.0 1.0 0.00 0.00 0.00 63 1017.0
20260502225902 71 287 5.0 7.0 0.00 0.00 0.00 65 1017.0
20260502225358 71 298 3.0 5.0 0.00 0.00 0.00 65 1017.0
20260502224855 71 0 7.0 9.0 0.00 0.00 0.00 64 1017.1
20260502224351 71 317 5.0 6.0 0.00 0.00 0.00 64 1017.4
20260502223849 71 46 0.0 1.0 0.00 0.00 0.00 64 1017.4
20260502223347 70 341 9.0 13.0 0.00 0.00 0.00 66 1017.4
20260502222844 71 347 5.0 6.0 0.00 0.00 0.00 66 1017.5
20260502222342 71 295 6.0 8.0 0.00 0.00 0.00 66 1017.6
20260502221837 71 321 5.0 7.0 0.00 0.00 0.00 66 1017.6
20260502221334 70 357 5.0 9.0 0.00 0.00 0.00 67 1017.7
20260502220831 71 265 5.0 7.0 0.00 0.00 0.00 67 1017.7
20260502220327 70 267 4.0 5.0 0.00 0.00 0.00 68 1017.7
20260502215823 70 281 5.0 8.0 0.00 0.00 0.00 69 1017.7
20260502215321 70 244 3.0 6.0 0.00 0.00 0.00 69 1017.7
20260502214818 70 298 3.0 5.0 0.00 0.00 0.00 69 1017.9
20260502214315 69 305 7.0 8.0 0.00 0.00 0.00 69 1017.9
20260502213812 70 23 6.0 7.0 0.00 0.00 0.00 68 1017.9
20260502213309 69 309 5.0 6.0 0.00 0.00 0.00 70 1017.8
20260502212808 69 276 6.0 8.0 0.00 0.00 0.00 72 1018.1
20260502212306 69 6 3.0 5.0 0.00 0.00 0.00 71 1018.2
20260502211802 68 153 1.0 2.0 0.00 0.00 0.00 72 1018.2
20260502211258 67 345 5.0 7.0 0.00 0.00 0.00 72 1018.0
20260502210755 68 21 6.0 10.0 0.00 0.00 0.00 71 1018.3
20260502210253 69 272 6.0 10.0 0.00 0.00 0.00 68 1018.3
20260502205750 69 325 3.0 3.0 0.00 0.00 0.00 68 1018.1
20260502205246 68 350 4.0 5.0 0.00 0.00 0.00 70 1018.4
20260502204743 67 347 2.0 3.0 0.00 0.00 0.00 70 1018.4
20260502204240 66 354 4.0 7.0 0.00 0.00 0.00 70 1018.5
20260502203738 66 289 5.0 6.0 0.00 0.00 0.00 70 1018.5
20260502203236 67 22 7.0 9.0 0.00 0.00 0.00 70 1018.6
20260502202729 67 19 7.0 8.0 0.00 0.00 0.00 71 1018.4
20260502202228 67 19 5.0 5.0 0.00 0.00 0.00 70 1018.6
20260502201725 67 309 3.0 5.0 0.00 0.00 0.00 70 1018.7
20260502201222 66 2 6.0 7.0 0.00 0.00 0.00 73 1019.0
20260502200718 66 339 7.0 7.0 0.00 0.00 0.00 74 1018.8
20260502200214 66 43 5.0 6.0 0.00 0.00 0.00 71 1019.0
20260502195713 66 253 3.0 3.0 0.00 0.00 0.00 73 1018.9
20260502195209 66 7 4.0 5.0 0.00 0.00 0.00 71 1018.9
20260502194706 66 46 3.0 3.0 0.00 0.00 0.00 71 1018.8
20260502194203 65 319 5.0 6.0 0.00 0.00 0.00 73 1019.2
20260502193658 65 282 5.0 6.0 0.00 0.00 0.00 73 1019.2
20260502193156 64 334 3.0 3.0 0.00 0.00 0.00 73 1019.0
20260502192651 63 316 3.0 3.0 0.00 0.00 0.00 75 1019.2
20260502192149 65 326 4.0 5.0 0.00 0.00 0.00 74 1019.3
20260502191645 63 246 1.0 2.0 0.00 0.00 0.00 76 1019.4
20260502191143 62 31 2.0 2.0 0.00 0.00 0.00 77 1019.3
20260502190640 63 328 3.0 5.0 0.00 0.00 0.00 76 1019.5
20260502190138 61 341 1.0 1.0 0.00 0.00 0.00 81 1019.8
20260502185632 60 352 4.0 5.0 0.00 0.00 0.00 82 1019.3